Weather History for Rome, OR

Change the Weather History Date:

Tuesday, January 8, 2013

  Actual Average Record
Temperature  
Mean Temperature 34 °F 29 °F  
Max Temperature 40 °F 38 °F 55 °F (1953)
Min Temperature 28 °F 20 °F -14 °F (1977)
Degree Days  
Heating Degree Days 31 36  
Month to date heating degree days 450 292  
Since 1 July heating degree days 2807 3039  
Cooling Degree Days 0 0  
Month to date cooling degree days 0 0  
Year to date cooling degree days 0 0  
Moisture  
Dew Point 27 °F    
Average Humidity 76    
Maximum Humidity 82    
Minimum Humidity 70    
Precipitation  
Precipitation 0.00 in 0.02 in 0.53 in (1994)
Month to date precipitation 0.01 0.19  
Year to date precipitation 0.01 0.19  
Sea Level Pressure  
Sea Level Pressure 30.24 in    
Wind  
Wind Speed 17 mph (SE)    
Max Wind Speed 28 mph    
Max Gust Speed 33 mph    
T = Trace of Precipitation, MM = Missing Value Source: NWS Daily Summary

Daily Weather History Graph

Daily Weather History Graph

Search for Another Location

Airport:

Trip Planner

Search our weather history database for the weather conditions in past years. The results will help you decide how hot, cold, wet, or windy it might be!

Date:

Astronomy

Jan. 08, 2013 Rise Set
Actual Time 7:20 AM PST 4:36 PM PST
Civil Twilight 6:49 AM PST 5:07 PM PST
Nautical Twilight 6:14 AM PST 5:42 PM PST
Astronomical Twilight 5:40 AM PST 6:16 PM PST
Moon 3:58 AM PST (1/8) 1:42 PM PST (1/8)
Length of Visible Light 10h 18m
Length of Day
9h 15m
Waning Crescent, 13% of the Moon is Illuminated
Jan 8
Waning Crescent
Jan 11
New
Jan 18
First Quarter
Jan 26
Full
Feb 3
Last Quarter

Hourly Weather History & Observations

Time (PST) Temp. Windchill Dew Point Humidity Pressure Visibility Wind Dir Wind Speed Gust Speed Precip Events Conditions
12:52 AM 30.9 °F 21.2 °F 25.0 °F 79% 30.23 in - SE 12.7 mph - N/A   Unknown
1:52 AM 30.9 °F 19.1 °F 25.0 °F 79% 30.23 in - SE 18.4 mph - N/A   Unknown
2:52 AM 28.9 °F 15.8 °F 23.0 °F 78% 30.23 in - SE 20.7 mph 26.5 mph N/A   Unknown
3:52 AM 32.0 °F 22.5 °F 26.1 °F 79% 30.24 in - SSE 12.7 mph - N/A   Unknown
4:52 AM 32.0 °F 21.6 °F 25.0 °F 75% 30.23 in - SE 15.0 mph - N/A   Unknown
5:52 AM 30.9 °F 19.4 °F 25.0 °F 79% 30.25 in - SE 17.3 mph - N/A   Unknown
6:52 AM 28.0 °F 16.5 °F 21.9 °F 78% 30.27 in - SE 15.0 mph - N/A   Unknown
7:52 AM 28.0 °F 17.0 °F 23.0 °F 81% 30.28 in - SE 13.8 mph - N/A   Unknown
8:52 AM 30.9 °F 19.8 °F 25.0 °F 79% 30.29 in - SE 16.1 mph - N/A   Unknown
9:52 AM 35.1 °F 25.5 °F 27.0 °F 72% 30.28 in - SE 15.0 mph 24.2 mph N/A   Unknown
10:52 AM 36.0 °F 28.0 °F 28.0 °F 73% 30.27 in - SSE 11.5 mph - N/A   Unknown
11:52 AM 36.0 °F 29.6 °F 28.9 °F 76% 30.23 in - SSE 8.1 mph 21.9 mph N/A   Unknown
12:52 PM 37.0 °F 26.4 °F 28.9 °F 73% 30.22 in - SE 20.7 mph 25.3 mph N/A   Unknown
1:52 PM 37.9 °F 27.9 °F 30.0 °F 73% 30.22 in - SE 19.6 mph - N/A   Unknown
2:52 PM 39.0 °F 29.6 °F 30.0 °F 70% 30.22 in - SE 18.4 mph - N/A   Unknown
3:52 PM 37.0 °F 27.0 °F 30.0 °F 76% 30.22 in - SE 18.4 mph 23.0 mph N/A   Unknown
4:52 PM 35.1 °F 26.9 °F 28.9 °F 78% 30.23 in - South 11.5 mph - N/A   Unknown
5:52 PM 35.1 °F 26.9 °F 28.9 °F 78% 30.24 in - South 11.5 mph - N/A   Unknown
6:52 PM 35.1 °F 24.1 °F 28.0 °F 76% 30.24 in - SE 19.6 mph 27.6 mph N/A   Unknown
7:52 PM 34.0 °F 23.4 °F 28.0 °F 79% 30.25 in - SSE 17.3 mph - N/A   Unknown
8:52 PM 32.0 °F 20.1 °F 26.1 °F 79% 30.25 in - SE 19.6 mph 26.5 mph N/A   Unknown
9:52 PM 30.9 °F 17.2 °F 25.0 °F 79% 30.22 in - SE 25.3 mph 32.2 mph N/A   Unknown
10:52 PM 32.0 °F 18.9 °F 26.1 °F 79% 30.20 in - SE 24.2 mph 32.2 mph N/A   Unknown
11:52 PM 33.1 °F 20.3 °F 27.0 °F 78% 30.19 in - SE 24.2 mph 32.2 mph N/A   Unknown